FW8355 Weather Reports


Display with metric or nautical units.
time (UTC)temp
F
wind
direction
speed
MPH
gust
MPH
rain 1hr
in
rain 24hr
in
rain mn
in
humidity
%
barometer
mb
20260902005538 75 0.0 0.0 0.00 0.00 0.00 83 1016.4
20260902004516 76 0.0 0.0 0.00 0.00 0.00 84 1016.4
20260902003536 76 0.0 0.0 0.00 0.00 0.00 85 1016.4
20260902002516 76 0.0 0.0 0.00 0.00 0.00 85 1016.3
20260902001536 77 0.0 0.0 0.00 0.00 0.00 85 1016.4
20260901233516 77 0.0 0.0 0.00 0.00 0.00 84 1016.3
20260901232516 77 0.0 0.0 0.00 0.00 0.00 84 1016.4
20260901231516 77 0.0 0.0 0.00 0.00 0.00 83 1016.5
20260901230536 77 0.0 0.0 0.00 0.00 0.00 84 1016.5
20260901225517 77 0.0 0.0 0.00 0.00 0.00 85 1016.5
20260901224516 77 0.0 0.0 0.00 0.00 0.00 84 1016.4
20260901223516 77 0.0 0.0 0.00 0.00 0.00 83 1016.5
20260901222516 77 0.0 0.0 0.00 0.00 0.00 84 1016.4
20260901221516 77 0.0 0.0 0.00 0.00 0.00 83 1016.5
20260901220516 77 0.0 0.0 0.00 0.00 0.00 83 1016.4
20260901215517 77 0.0 0.0 0.00 0.00 0.00 83 1016.4
20260901214516 77 0.0 0.0 0.00 0.00 0.00 83 1016.3
20260901213537 78 0.0 0.0 0.00 0.00 0.00 84 1016.2
20260901212517 78 0.0 0.0 0.00 0.00 0.00 85 1016.2
20260901211518 78 0.0 0.0 0.00 0.00 0.00 84 1016.2
20260901210517 78 0.0 0.0 0.00 0.00 0.00 83 1016.3
20260901205517 78 0.0 1.0 0.00 0.00 0.00 84 1016.1
20260901204517 78 338 1.0 2.0 0.00 0.00 0.00 85 1016.1
20260901203517 78 315 1.0 2.0 0.00 0.00 0.00 86 1016.1
20260901202537 79 0.0 0.0 0.00 0.00 0.00 87 1016.2
20260901201516 79 0.0 0.0 0.00 0.00 0.00 87 1016.1
20260901200536 79 0.0 0.0 0.00 0.00 0.00 86 1016.1
20260901195517 80 0.0 0.0 0.00 0.00 0.00 85 1016.1
20260901194556 80 0.0 0.0 0.00 0.00 0.00 85 1016.1
20260901193517 80 0.0 0.0 0.00 0.00 0.00 84 1016.1
20260901192537 80 0.0 0.0 0.00 0.00 0.00 84 1016.0
20260901191536 81 0.0 0.0 0.00 0.00 0.00 84 1016.1
20260901190516 81 338 1.0 3.0 0.00 0.00 0.00 83 1016.0
20260901185516 81 0.0 2.0 0.00 0.00 0.00 83 1015.9
20260901184516 81 270 1.0 3.0 0.00 0.00 0.00 83 1015.8
20260901183557 81 0.0 1.0 0.00 0.00 0.00 83 1015.7
20260901182516 81 0.0 2.0 0.00 0.00 0.00 83 1015.4
20260901181516 81 225 1.0 4.0 0.00 0.00 0.00 83 1015.4
20260901180516 82 225 2.0 6.0 0.00 0.00 0.00 81 1015.3
20260901175516 82 203 4.0 8.0 0.00 0.00 0.00 81 1015.0
20260901174516 82 203 4.0 9.0 0.00 0.00 0.00 81 1014.9
20260901173516 82 203 5.0 11.0 0.00 0.00 0.00 80 1014.8
20260901172516 83 203 4.0 9.0 0.00 0.00 0.00 79 1014.8
20260901171516 83 203 4.0 9.0 0.00 0.00 0.00 79 1014.7
20260901170516 84 225 3.0 8.0 0.00 0.00 0.00 78 1014.8
20260901165516 85 203 4.0 9.0 0.00 0.00 0.00 76 1014.7
20260901164516 85 203 5.0 9.0 0.00 0.00 0.00 74 1014.7
20260901163516 85 203 4.0 9.0 0.00 0.00 0.00 74 1014.8
20260901162516 85 203 5.0 11.0 0.00 0.00 0.00 75 1014.7
20260901161517 86 203 5.0 11.0 0.00 0.00 0.00 74 1014.7
20260901160516 87 225 3.0 11.0 0.00 0.00 0.00 72 1014.7
20260901155516 87 203 5.0 10.0 0.00 0.00 0.00 71 1014.7
20260901154516 88 203 6.0 13.0 0.00 0.00 0.00 70 1014.6
20260901153536 88 248 4.0 11.0 0.00 0.00 0.00 68 1014.6
20260901152537 87 225 8.0 14.0 0.00 0.00 0.00 67 1014.6
20260901151516 88 203 4.0 9.0 0.00 0.00 0.00 69 1014.6
20260901150537 87 203 7.0 13.0 0.00 0.00 0.00 70 1014.5
20260901145516 87 203 6.0 11.0 0.00 0.00 0.00 72 1014.5
20260901144516 86 203 5.0 11.0 0.00 0.00 0.00 73 1014.5
20260901143516 87 203 7.0 13.0 0.00 0.00 0.00 73 1014.4
20260901142516 87 225 6.0 13.0 0.00 0.00 0.00 71 1014.5
20260901141517 88 225 9.0 14.0 0.00 0.00 0.00 70 1014.5
20260901140556 89 203 7.0 17.0 0.00 0.00 0.00 68 1014.5
20260901135516 88 225 8.0 16.0 0.00 0.00 0.00 68 1014.5
20260901134516 88 225 8.0 15.0 0.00 0.00 0.00 67 1014.4
20260901133516 89 225 8.0 14.0 0.00 0.00 0.00 66 1014.5
20260901132516 89 203 7.0 13.0 0.00 0.00 0.00 65 1014.4
20260901131516 89 203 9.0 15.0 0.00 0.00 0.00 65 1014.6
20260901130536 90 203 6.0 14.0 0.00 0.00 0.00 62 1014.7
20260901125516 90 225 7.0 16.0 0.00 0.00 0.00 62 1014.8
20260901124516 90 225 5.0 12.0 0.00 0.00 0.00 58 1014.8
20260901123516 90 225 7.0 15.0 0.00 0.00 0.00 59 1014.8
20260901122516 89 225 6.0 12.0 0.00 0.00 0.00 61 1014.7
20260901121535 89 203 9.0 18.0 0.00 0.00 0.00 62 1014.9
20260901120515 90 203 7.0 14.0 0.00 0.00 0.00 62 1014.9
20260901115516 90 203 7.0 14.0 0.00 0.00 0.00 62 1015.0
20260901114515 90 225 6.0 10.0 0.00 0.00 0.00 61 1015.1
20260901113516 90 203 6.0 14.0 0.00 0.00 0.00 61 1014.9
20260901112516 89 203 6.0 13.0 0.00 0.00 0.00 62 1015.0
20260901111556 90 180 5.0 11.0 0.00 0.00 0.00 62 1015.0
20260901110515 89 203 7.0 12.0 0.00 0.00 0.00 62 1015.0
20260901105516 90 248 4.0 10.0 0.00 0.00 0.00 61 1015.1
20260901104515 90 203 3.0 10.0 0.00 0.00 0.00 61 1015.1
20260901103536 90 203 5.0 9.0 0.00 0.00 0.00 57 1015.1
20260901102515 90 203 4.0 10.0 0.00 0.00 0.00 58 1015.1
20260901101516 90 180 3.0 7.0 0.00 0.00 0.00 55 1015.2
20260901100517 90 225 2.0 5.0 0.00 0.00 0.00 54 1015.2
20260901095517 90 203 3.0 6.0 0.00 0.00 0.00 54 1015.3
20260901094517 89 203 1.0 6.0 0.00 0.00 0.00 57 1015.4
20260901093517 88 180 4.0 8.0 0.00 0.00 0.00 59 1015.5
20260901092517 89 315 2.0 7.0 0.00 0.00 0.00 61 1015.6
20260901091517 89 203 2.0 6.0 0.00 0.00 0.00 62 1015.5
20260901090517 89 113 1.0 3.0 0.00 0.00 0.00 62 1015.6
20260901085517 88 203 2.0 5.0 0.00 0.00 0.00 63 1015.5
20260901084517 88 0.0 1.0 0.00 0.00 0.00 65 1015.6
20260901083517 85 23 1.0 3.0 0.00 0.00 0.00 67 1015.6
20260901082517 85 113 2.0 8.0 0.00 0.00 0.00 67 1015.5
20260901081517 85 180 3.0 5.0 0.00 0.00 0.00 71 1015.3
20260901080537 84 113 3.0 6.0 0.00 0.00 0.00 72 1015.3
20260901075517 83 45 2.0 4.0 0.00 0.00 0.00 73 1015.4
20260901074517 83 113 4.0 8.0 0.00 0.00 0.00 73 1015.5
20260901073517 83 113 3.0 7.0 0.00 0.00 0.00 75 1015.4
20260901072515 82 113 3.0 5.0 0.00 0.00 0.00 75 1015.4
20260901071517 82 90 3.0 7.0 0.00 0.00 0.00 75 1015.4
20260901070517 82 90 1.0 5.0 0.00 0.00 0.00 75 1015.3
20260901065557 81 113 3.0 6.0 0.00 0.00 0.00 76 1015.3
20260901064537 81 90 3.0 7.0 0.00 0.00 0.00 76 1015.4
20260901063517 80 90 1.0 4.0 0.00 0.00 0.00 76 1015.2
20260901062537 80 0.0 2.0 0.00 0.00 0.00 77 1015.3
20260901061517 79 0.0 2.0 0.00 0.00 0.00 79 1015.2
20260901060517 78 90 2.0 4.0 0.00 0.00 0.00 78 1015.2
20260901055517 77 0.0 2.0 0.00 0.00 0.00 81 1015.2
20260901054557 76 23 1.0 4.0 0.00 0.00 0.00 82 1015.2
20260901053517 75 45 2.0 5.0 0.00 0.00 0.00 82 1015.2
20260901052517 74 45 3.0 7.0 0.00 0.00 0.00 82 1015.3
20260901051517 73 0.0 1.0 0.00 0.00 0.00 85 1015.2
20260901050557 73 0.0 1.0 0.00 0.00 0.00 86 1015.1
20260901045517 72 0.0 0.0 0.00 0.00 0.00 87 1015.0
20260901044517 72 0.0 0.0 0.00 0.00 0.00 87 1015.1
20260901043537 72 0.0 1.0 0.00 0.00 0.00 86 1015.0
20260901042517 72 0.0 1.0 0.00 0.00 0.00 85 1014.9
20260901041517 72 0.0 1.0 0.00 0.00 0.00 85 1014.7
20260901040517 73 0.0 1.0 0.00 0.00 0.00 85 1014.7
20260901035517 73 0.0 0.0 0.00 0.00 0.00 84 1014.7
20260901034517 73 45 1.0 2.0 0.00 0.00 0.00 84 1014.8
20260901033517 74 23 2.0 3.0 0.00 0.00 0.00 84 1014.6
20260901032516 74 45 1.0 2.0 0.00 0.00 0.00 85 1014.7
20260901031517 73 23 2.0 3.0 0.00 0.00 0.00 86 1014.7
20260901030517 73 338 1.0 2.0 0.00 0.00 0.00 87 1014.9
20260901025516 73 23 2.0 2.0 0.00 0.00 0.00 86 1014.9
20260901024516 72 45 1.0 2.0 0.00 0.00 0.00 87 1014.9
20260901023517 73 0.0 0.0 0.00 0.00 0.00 88 1015.0
20260901022516 73 0 1.0 1.0 0.00 0.00 0.00 89 1015.0
20260901021517 73 0.0 0.0 0.00 0.00 0.00 89 1015.0
20260901020537 73 0.0 0.0 0.00 0.00 0.00 87 1014.8
20260901015517 73 0.0 1.0 0.00 0.00 0.00 86 1014.8
20260901014516 73 0.0 0.0 0.00 0.00 0.00 86 1014.8
20260901013517 73 23 1.0 2.0 0.00 0.00 0.00 86 1014.7
20260901012516 73 0.0 2.0 0.00 0.00 0.00 86 1014.7
20260901011536 73 0.0 3.0 0.00 0.00 0.00 86 1014.7
20260901010517 73 0.0 0.0 0.00 0.00 0.00 87 1014.7